This demonstration page uses our WeatherBlox Daily Observations layout. Learn more.

Left ArrowRight Arrow

Hourly Observations for October 6, 2021

Temp ( °F °C ) Dew Point ( °F °C ) Humidity (%) Winds ( mph kmh ) Pressure ( in mb ) Visibility ( mi km ) Precip ( " mm )
12:53 am 00:53 Clear 69 20.6 40 4.4 35 35 ENE 5 7 29.93 1014 10 16 0.00 0.00
1:53 am 01:53 Clear 67 19.4 39 3.9 36 36 E 6 9 29.93 1014 10 16 0.00 0.00
2:53 am 02:53 Clear 61 16.1 40 4.4 46 46 VRB 3 6 29.95 1014 10 16 0.00 0.00
3:53 am 03:53 Clear 63 17.2 41 5 45 45 ESE 5 7 29.94 1014 10 16 0.00 0.00
4:53 am 04:53 Clear 58 14.4 42 5.6 56 56 Calm 29.94 1014 10 16 0.00 0.00
5:53 am 05:53 Clear 55 12.8 42 5.6 62 62 NNE 6 9 29.96 1014 10 16 0.00 0.00
6:53 am 06:53 Clear 54 12.2 44 6.7 69 69 N 7 11 29.97 1015 10 16 0.00 0.00
7:53 am 07:53 Sunny 53 11.7 46 7.8 77 77 N 6 9 29.99 1016 10 16 0.00 0.00
8:53 am 08:53 Sunny 58 14.4 49 9.4 72 72 NNW 6 9 29.99 1016 10 16 0.00 0.00
9:53 am 09:53 Sunny 66 18.9 51 10.6 59 59 Calm 30.00 1016 10 16 0.00 0.00
10:53 am 10:53 Sunny 70 21.1 50 10 49 49 SSE 3 6 30.00 1016 10 16 0.00 0.00
11:53 am 11:53 Sunny 75 23.9 49 9.4 40 40 Calm 29.99 1016 10 16 0.00 0.00
12:53 pm 12:53 Sunny 82 27.8 48 8.9 31 31 Calm 29.96 1014 10 16 0.00 0.00
1:53 pm 13:53 Sunny 85 29.4 44 6.7 24 24 Calm 29.93 1013 10 16 0.00 0.00
2:53 pm 14:53 Sunny 89 31.7 42 5.6 19 19 VRB 3 6 29.89 1012 10 16 0.00 0.00
3:53 pm 15:53 Sunny 89 31.7 41 5 19 19 SSE 5 7 29.87 1012 10 16 0.00 0.00
4:53 pm 16:53 Sunny 88 31.1 39 3.9 18 18 VRB 7 11 29.86 1011 10 16 0.00 0.00
5:53 pm 17:53 Partly Cloudy 87 30.6 39 3.9 18 18 Calm 29.86 1011 10 16 0.00 0.00
6:53 pm 18:53 Partly Cloudy 88 31.1 39 3.9 18 18 ESE 6 9 29.86 1011 10 16 0.00 0.00
7:53 pm 19:53 Clear 82 27.8 40 4.4 22 22 SE 5 7 29.88 1012 9 14 0.00 0.00
8:53 pm 20:53 Clear 77 25 39 3.9 26 26 ESE 7 11 29.88 1012 10 16 0.00 0.00
9:53 pm 21:53 Clear 77 25 40 4.4 26 26 ESE 8 13 29.88 1012 10 16 0.00 0.00
10:53 pm 22:53 Mostly Clear 75 23.9 40 4.4 28 28 SE 8 13 29.90 1012 10 16 0.00 0.00
11:53 pm 23:53 Clear 72 22.2 41 5 33 33 SE 9 15 29.90 1013 10 16 0.00 0.00

Powered by AerisWeather